Terminal Aerodrome Forecast
Issued by NWS

Current Version | Previous Version | Text Only | Print | Product List | Glossary Off
Versions: 1 2 3 4 5 6 7 8 9 10 11 12 13 14 15 16 17 18 19 20 21

000
FTUS41 KILN 021130
TAFLCK
TAF
KLCK 021130Z 0212/0312 24003KT P6SM SCT080 BKN250
     FM021500 24012KT P6SM FEW050 SCT200
     FM030000 20008KT P6SM SCT200
     FM031100 23012KT P6SM VCSH BKN050=

USA.gov is the U.S. government's official web portal to all federal, state and local government web resources and services.